Regional Weather Roundup
Issued by NWS

Home | Current Version | Previous Version | Text Only | Print | Product List | Glossary Off
Versions: 1 2 3 4 5 6 7 8 9 10 11 12 13 14 15 16 17 18 19 20 21 22 23 24 25 26 27 28 29 30 31 32 33 34 35 36 37 38 39 40 41 42 43 44 45 46 47 48 49 50

000
ASUS43 KDMX 241401
RWRIA

WEATHER ROUNDUP FOR IOWA
NATIONAL WEATHER SERVICE DES MOINES IA
800 AM CST FRI FEB 24 2017

NOTE: "FAIR" INDICATES FEW OR NO CLOUDS BELOW 12,000 FEET WITH NO
SIGNIFICANT WEATHER AND/OR OBSTRUCTIONS TO VISIBILITY.

* - THESE STATIONS ARE NOT NWS STATIONS...THUS NOT UNDER NWS
QUALITY CONTROL.  THEY ALSO DO NOT REPORT WEATHER SUCH
AS PRECIPITATION OR FOG.

IAZ001>003-012>014-020>022-031>034-043>046-241500-
   NORTHWEST IOWA

CITY           SKY/WX    TMP DP  RH WIND       PRES   REMARKS
CARROLL *      MIX PCPN  28  28 100 N30G37    29.68S VSB 1/4 WCI  13
CHEROKEE *     CLOUDY    23  22  98 N20G31    29.80R WCI   8
DENISON *      HVY RAIN  25  23  93 N22G33    29.71R VSB 3/4 WCI  10
LE MARS *      MIX PCPN  23  23 100 N21G32    29.85R VSB 1/4 WCI   8
SHELDON *      MIX PCPN  21  21 100 N28G36    29.82R VSB 1/2 WCI   3
SIOUX CITY     FOG       26  23  88 N28       29.83R VSB 1/2 WCI  10
SPENCER        FOG       22  19  89 N29G38    29.79R VSB 3/4 WCI   4
STORM LAKE *   SNOW      21  21 100 N28G40    29.74R VSB 1/4 WCI   3
$$

IAZ055>058-069>071-079>083-090>094-241500-
   SOUTHWEST IOWA

CITY           SKY/WX    TMP DP  RH WIND       PRES   REMARKS
ATLANTIC *     DRIZZLE   30  28  93 N25       29.67R WCI  16
CLARINDA *     MOCLDY    32  32 100 N16G25    29.66R FOG     WCI  21
COUNCIL BLFS * LGT RAIN  28  28 100 N18G33    29.71R WCI  16
CRESTON *      CLOUDY    32  32 100 N18       29.60R FOG     WCI  20
HARLAN  *      LGT RAIN  28  28 100 N22G31    29.73R WCI  15
LAMONI         CLOUDY    35  33  92 N14       29.56R WCI  26
RED OAK *      LGT RAIN  30  30 100 N17G25    29.67R WCI  18
SHENANDOAH *   LGT RAIN  32  30  93 N15G26    29.68R WCI  22
$$

IAZ047>049-059>061-072>074-084-241500-
   CENTRAL IOWA

CITY           SKY/WX    TMP DP  RH WIND       PRES   REMARKS
AMES           FRZ RAIN  31  29  92 N20       29.63R FOG     WCI  19
ANKENY *       LGT RAIN  32  32 100 N16G24    29.61S WCI  21
BOONE *        LGT RAIN  30  30 100 NE23G35   29.62R VSB 3/4 WCI  17
CHARITON *     CLOUDY    34  34 100 N14       29.56R FOG     WCI  24
DES MOINES     DRIZZLE   35  32  88 N15       29.60R FOG     WCI  25
GRINNELL*      CLOUDY    32  32  99 N12       29.56R FOG     WCI  23
KNOXVILLE *    MIX PCPN  34  32  93 N14       29.55R WCI  24
MARSHALLTOWN   FRZ RAIN  32  31  96 N20       29.59R FOG     WCI  20
NEWTON *       CLOUDY    32  32 100 N17       29.57R FOG     WCI  21
PELLA *        DRIZZLE   34  33  96 N9        29.58R WCI  26
PERRY *        LGT SNOW  31  30  96 N16       29.66R VSB 3/4 WCI  20
$$

IAZ004>006-015-016-023>025-035-036-241500-
   NORTH CENTRAL IOWA

CITY           SKY/WX    TMP DP  RH WIND       PRES   REMARKS
ALGONA *       FOG       25  25 100 N14G28    29.73R VSB 1/2 WCI  13
CLARION *      FOG       28  28 100 N25       29.68R VSB 1/2 WCI  14
ESTHERVILLE    FOG       21  19  92 N32       29.78R VSB 1/2 WCI   2
FORT DODGE *   CLOUDY    27  21  80 N17G25    29.70R WCI  14
MASON CITY     MIX PCPN  27  27 100 N26G35    29.68R FOG     WCI  12
FOREST CITY *  MIX PCPN  28  28 100 N20G28    29.69R WCI  15
WEBSTER CITY * SNOW      28  27  93 N25G31    29.64R VSB 1/4 WCI  14
IOWA FALLS *   MIX PCPN  32  29  91 N14G22    29.64R WCI  22
$$

IAZ007>011-017>019-026>030-037>042-050>054-066-241500-
   NORTHEAST IOWA

CITY           SKY/WX    TMP DP  RH WIND       PRES   REMARKS
CEDAR RAPIDS   CLOUDY    33  33 100 NE20G28   29.48S FOG     WCI  21
CHARLES CITY * LGT SNOW  30  30 100 N21G28    29.62R WCI  17
CLINTON *      CLOUDY    37  36  96 NE21      29.46R FOG     WCI  26
DECORAH *      LGT RAIN  30  28  93 NE14G22   29.60R WCI  20
DUBUQUE        LGT RAIN  31  31 100 NE22G31   29.49S FOG     WCI  18
MONTICELLO *   PTSUNNY   32  32 100 NE16G24   29.50R FOG     WCI  21
OELWEIN *      MIX PCPN  32  32 100 NE26      29.55R WCI  18
WATERLOO       CLOUDY    32  28  85 NE22      29.58R FOG     WCI  19
$$

IAZ064-065-067-068-078-241500-
   EAST CENTRAL IOWA

CITY           SKY/WX    TMP DP  RH WIND       PRES   REMARKS
DAVENPORT      CLOUDY    37  36  96 NE15      29.45R FOG     WCI  28
IOWA CITY      LGT RAIN  36  33  89 NE15      29.50R FOG     WCI  27
MUSCATINE *    CLOUDY    39  37  93 N9G18     29.47R FOG     WCI  33
QUAD CITIES    CLOUDY    42  38  85 NE12      29.44R FOG
$$

IAZ062-063-075>077-085>089-095>099-241500-
   SOUTHEAST IOWA

CITY           SKY/WX    TMP DP  RH WIND       PRES   REMARKS
BURLINGTON     FOG       42  42 100 W8        29.45R VSB 3/4
FAIRFIELD *    FOG       37  36  93 N9        29.50R VSB 1   WCI  31
KEOKUK *       FOG       41  41 100 W10       29.47R VSB 1/4
OTTUMWA        CLOUDY    36  35  96 N12       29.52R FOG     WCI  28
WASHINGTON *   LGT RAIN  36  36 100 N9G17     29.50R WCI  29
$$

ABBREVIATIONS USED IN REMARKS
   TC - TEMPERATURES IN CELSIUS
  WCI - WIND CHILL INDEX
   HX - HEAT INDEX
  VSB - VISIBILITY
$$





USA.gov is the U.S. government's official web portal to all federal, state and local government web resources and services.